COSMOS 2516 (753) (41554 NORAD) Tracking and Keplerian Element Data

This shows tracking and keplerian element data for the satellite.

Feedback or suggestion? Click here.




ElementValue
Catalog41554
NameCOSMOS 2516 (753)
Epoch Orbit1661
Epoch Day198.85911209
Epoch Year2018
RAAN291.3259
Inclination64.4275
Eccentricity0.0013152
Argument of Perigee214.2957
Mean Anonmoly157.9062
Mean Motion2.13101733
Decay Rate-4E-07
L11 41554U 16032A 18198.85911209 -.00000040 00000-0 00000-0 0 9998
L22 41554 64.4275 291.3259 0013152 214.2957 157.9062 2.13101733 16617

Live tracking and technical data element details for COSMOS 2516 (753) (NORAD 41554). COSMOS 2516 (753) can be tracked NOW for your location showing map with azimuth and elevation plus other details from your city location.

Track the satellite on the map from your city or location and see movement details for azimuth, elevation, latitude, longitude, range, height, and movement on the map or in text.







IsCatalogInMostPopularTable: catalog: 41554, numindb: 50
Update: records affected: 1



GetName: 41554 COSMOS 2516 (753)

Hit Count: updated at: Thu, 19 Jul 2018 03:53:23 GMT